Theta_e
332 329 329 329 329 329 330 335 337 331 330 331 331 332 333 333 337 339 339 338 337 335 335 335 338 346 339 347 354 357 359 356
331 328 328 328 328 329 331 334 335 338 332 332 331 330 331 331 333 337 335 334 336 337 335 336 335 335 338 340 342 352 354 355
330 329 330 329 328 331 334 336 337 336 335 332 332 331 331 332 331 334 335 334 335 336 337 337 336 336 335 335 339 341 347 353
328 329 328 329 331 333 335 335 338 337 335 334 331 331 331 330 331 334 335 334 336 334 334 333 334 336 337 338 337 338 341 344
328 329 328 330 332 335 334 334 336 336 334 333 330 329 328 329 330 334 334 335 335 336 333 332 333 336 338 338 338 339 338 340
328 328 331 332 333 332 334 331 332 334 334 331 328 328 327 327 327 328 330 331 332 332 329 331 334 335 335 335 336 336 338 337
328 329 331 332 333 333 332 333 331 332 333 330 330 331 327 326 327 326 328 328 328 329 326 328 331 330 331 333 334 335 335 337
328 329 331 332 332 333 332 330 332 331 328 329 326 325 326 326 325 326 328 328 327 328 325 326 326 325 325 330 332 333 334 335
329 330 330 331 331 329 328 328 331 328 324 323 322 321 324 324 325 328 328 327 327 327 323 324 325 324 325 327 328 330 330 331
327 327 327 323 325 326 326 326 328 327 324 326 325 326 325 325 325 327 328 326 326 325 325 323 325 323 325 326 326 327 327 329
324 324 323 320 321 323 324 326 327 328 328 324 324 324 323 321 322 322 324 324 324 324 324 324 323 323 320 324 324 325 322 327
322 319 318 317 318 319 322 325 326 325 327 324 324 320 316 318 318 319 320 322 321 321 323 322 323 321 322 322 322 325 324 321
316 316 317 317 318 319 322 324 324 325 325 324 319 319 317 316 316 321 323 322 320 318 321 323 321 319 322 320 319 321 324 322
315 316 317 319 319 319 320 320 321 321 320 321 320 319 318 315 315 314 314 314 315 320 317 319 320 320 319 319 319 319 323 319
314 314 314 317 317 318 318 317 317 318 318 317 318 318 318 316 316 313 313 311 312 315 319 318 317 319 320 321 316 317 318 318
313 314 315 315 316 317 316 316 316 316 316 315 316 317 313 312 314 313 311 311 314 316 317 317 317 318 319 320 318 315 316 317
313 315 316 315 316 316 315 315 315 315 314 314 314 314 313 312 314 314 313 315 315 316 313 312 314 318 313 315 316 314 314 313
314 315 315 316 316 316 316 316 314 314 313 313 313 311 312 313 313 312 313 313 313 312 310 310 310 311 311 314 311 311 310 310
314 314 315 315 316 315 315 314 313 312 312 312 311 310 311 311 309 310 309 308 311 310 308 308 308 308 310 310 309 307 307 308
313 313 313 314 314 314 314 313 312 311 311 309 309 311 310 308 309 307 308 307 308 308 308 306 306 306 306 306 305 306 306 307
Wind_Speed
9 9 10 13 12 11 13 11 11 11 10 7 6 6 6 7 10 11 10 9 8 8 8 8 10 8 10 9 11 13 15 12
9 10 10 10 12 12 12 13 11 11 8 8 8 7 7 7 9 11 10 8 9 9 8 11 10 9 12 11 9 12 14 14
11 11 10 10 11 12 12 12 12 11 10 8 8 9 8 9 9 10 9 10 9 10 10 10 10 11 11 11 12 12 15 15
13 12 10 10 10 10 10 11 10 9 9 9 7 7 8 8 8 9 12 10 9 10 11 11 10 10 11 12 13 14 14 15
11 10 11 10 9 9 7 7 8 7 8 7 7 7 8 7 8 8 9 10 11 11 11 11 11 11 14 11 13 13 14 14
11 11 10 8 8 7 6 6 8 9 8 7 7 7 7 7 7 7 9 11 10 10 9 9 12 12 11 11 11 11 14 15
11 10 9 7 6 6 7 8 11 11 10 9 9 9 8 9 8 8 11 11 11 10 10 10 13 11 11 10 9 12 13 14
11 9 7 6 6 7 8 9 11 11 8 8 8 8 9 9 9 9 12 10 12 11 11 10 10 10 12 12 15 13 12 14
10 7 4 4 6 7 9 10 11 10 9 10 10 11 11 10 10 12 13 12 14 14 12 13 12 11 12 14 14 16 13 13
9 6 4 5 5 7 8 9 10 9 8 8 9 9 11 10 11 11 14 15 17 15 15 15 14 13 15 11 14 13 13 10
8 6 2 3 6 7 7 8 9 9 10 9 9 10 11 11 11 13 13 16 18 18 19 16 16 14 12 13 12 15 12 13
7 5 2 3 5 4 6 7 9 9 9 10 12 12 13 12 13 13 13 17 19 19 18 17 16 14 14 12 12 11 10 11
7 3 2 3 3 6 6 8 9 10 11 12 13 15 14 14 14 17 16 16 17 19 18 17 15 14 13 9 11 12 9 9
4 2 1 1 4 6 7 8 9 12 14 16 17 18 17 15 16 15 14 13 13 15 18 13 15 15 13 9 9 13 10 8
6 6 5 3 6 7 8 10 13 14 16 17 18 18 18 19 17 13 12 12 13 12 16 15 12 14 15 13 7 12 10 7
6 3 6 7 5 8 10 13 15 16 17 18 17 18 12 13 13 13 12 13 11 15 15 15 15 13 13 12 8 7 8 8
6 6 7 7 8 9 11 14 16 17 19 17 17 15 13 13 14 15 12 15 11 15 10 12 14 12 8 8 7 7 7 7
7 7 7 7 8 10 11 14 17 18 19 16 15 15 14 12 13 14 16 13 13 11 8 9 10 7 6 7 5 6 7 5
8 9 10 10 12 12 13 15 18 18 18 17 16 15 13 12 10 11 7 9 10 9 8 8 6 5 5 5 5 5 6 6
13 14 15 14 13 13 15 15 17 18 18 14 14 13 12 10 10 10 10 9 9 8 9 7 7 6 6 6 6 6 6 6
Wind_Direction
112 110 100 95 93 85 82 74 50 48 57 35 32 39 18 11 14 1 355 337 356 335 325 322 325 281 282 265 245 224 236 246
133 124 105 95 88 81 71 57 56 40 27 30 18 15 6 359 0 359 346 341 347 340 329 326 313 317 313 291 286 283 275 264
122 107 104 104 88 74 60 47 39 28 32 22 11 1 5 347 353 3 347 338 345 332 330 316 316 316 309 307 297 288 288 265
135 129 118 104 91 70 57 52 42 32 27 10 355 10 351 353 351 360 343 340 346 330 324 327 319 323 324 314 302 300 288 282
139 128 121 104 83 66 50 52 38 27 10 359 349 11 346 353 347 344 356 341 350 342 333 325 324 331 307 305 312 301 286 268
138 125 109 103 86 79 68 37 34 14 15 359 353 14 341 352 347 343 4 338 350 331 328 327 340 317 318 320 311 305 303 291
134 126 114 98 90 63 41 27 20 6 6 354 346 350 347 345 344 351 357 343 345 340 327 334 331 322 324 319 319 310 303 291
137 128 110 98 72 48 26 15 16 1 354 340 341 331 340 333 338 351 340 336 339 337 322 336 319 324 319 324 315 311 304 297
145 123 118 103 51 30 19 13 11 356 349 341 339 336 329 323 325 322 327 327 331 326 322 322 320 322 314 313 311 314 312 319
145 145 121 77 41 20 17 12 2 349 336 334 325 312 315 314 299 313 317 320 322 318 321 316 320 311 307 309 311 310 307 314
164 157 111 25 34 23 14 353 340 331 324 309 308 306 301 306 312 315 309 319 310 312 310 310 308 304 305 316 309 310 307 306
164 176 161 76 41 20 355 336 323 318 323 316 318 300 305 320 298 310 317 306 311 299 300 302 300 301 298 305 313 306 298 299
179 183 93 70 24 356 328 322 320 322 316 310 309 307 313 310 310 310 309 294 295 307 298 295 298 295 305 310 297 303 298 292
196 152 128 332 294 314 328 321 319 319 320 313 309 304 303 305 308 299 296 325 307 294 297 304 302 301 292 287 305 296 304 304
216 224 247 293 305 324 315 328 324 329 324 318 313 309 305 300 305 312 312 304 306 304 310 304 297 299 291 293 298 297 307 304
242 261 281 296 312 308 325 328 332 331 328 324 318 313 312 308 303 306 312 304 311 306 304 312 305 300 309 303 299 307 303 308
252 266 272 286 309 320 330 335 329 332 329 323 316 316 316 305 306 308 299 310 305 314 329 321 310 316 312 304 310 306 315 314
262 275 285 298 309 319 329 331 332 330 326 319 316 323 309 312 324 326 319 311 325 325 332 317 315 325 313 313 336 330 322 321
289 298 310 317 311 314 327 331 328 325 323 322 317 318 317 322 319 324 316 318 317 330 334 338 350 337 331 344 343 330 323 323
317 318 312 297 297 310 326 327 324 326 321 323 316 319 319 335 320 341 327 331 337 337 347 349 351 352 349 349 341 335 327 319